Tracking 29892 objects as of 21-Nov-2024
HD Live streaming from Space Station
objects crossing your sky now

STARLINK-3747

Track STARLINK-3747 now!
10-day predictions
STARLINK-3747 is classified as:


NORAD ID: 52306
Int'l Code: 2022-041AX
Perigee: 546.0 km
Apogee: 547.7 km
Inclination: 53.2 °
Period: 95.4 minutes
Semi major axis: 6917 km
RCS: Unknown
Launch date: April 21, 2022
Source: United States (US)
Launch site: AIR FORCE EASTERN TEST RANGE (AFETR)
Your satellite tracking list
Your tracking list is empty




NASA's NSSDC Master Catalog

Two Line Element Set (TLE):
1 52306U 22041AX  24325.29500248  .00000280  00000-0  35668-4 0  9993
2 52306  53.2168  58.7599 0001293  93.3120 266.8021 15.08849483144249
Source of the keplerian elements: AFSPC